GB-0342 weather

Vanguard Heliport
London, England, United Kingdom

Public forecast

Using degrees Celsius for public forecast. Weather courtesy of forecast.io.

METAR (pilot weather report)

Closest report is London City Airport, 3.1 nm (5.8 km) ENE. Retrieved 2018/09/26 10:20 UTC (21 minutes ago):

EGLC 261020Z AUTO 25010KT 9999 NCD 17/09 Q1033

TAF (pilot weather forecast)

Forecast is more than 12 hours old.

Closest forecast is London City Airport, 3.1 nm (5.8 km) ENE. Retrieved 2016/04/18 18:00 UTC (2 years ago):

TAF EGKB 181658Z 1818/1820 26007KT 9999 BKN035= TAF EGLC 181658Z 1818/1821 26010KT 9999 BKN040